Time,TemperatureF,DewpointF,PressureIn,WindDirection,WindDirectionDegrees,WindSpeedMPH,WindSpeedGustMPH,Humidity,HourlyPrecipIn,Conditions,Clouds,dailyrainin,SoftwareType,DateUTC
2013-08-01 00:33:00,66.0,-99.9,-100.00,ENE,70,0.0,2.0,-999,0.00,,,-99.99,,2013-08-01 04:33:00,
2013-08-01 00:43:00,66.0,-99.9,-100.00,NE,55,0.0,1.0,-999,0.00,,,-99.99,,2013-08-01 04:43:00,
2013-08-01 01:03:00,67.0,-99.9,-100.00,WSW,250,0.0,2.0,-999,0.00,,,-99.99,,2013-08-01 05:03:00,
2013-08-01 01:23:00,67.0,-99.9,-100.00,SSW,205,1.0,1.0,-999,0.00,,,-99.99,,2013-08-01 05:23:00,
2013-08-01 01:33:00,67.0,-99.9,-100.00,NW,310,0.0,2.0,-999,0.00,,,-99.99,,2013-08-01 05:33:00,
2013-08-01 02:02:00,67.0,-99.9,-100.00,SSW,200,0.0,1.0,-999,0.00,,,-99.99,,2013-08-01 06:02:00,
2013-08-01 03:12:00,67.0,-99.9,-100.00,South,190,0.0,2.0,-999,0.00,,,-99.99,,2013-08-01 07:12:00,
2013-08-01 03:23:00,67.0,-99.9,-100.00,North,0,0.0,1.0,-999,0.00,,,-99.99,,2013-08-01 07:23:00,
2013-08-01 04:18:00,67.0,-99.9,-100.00,WSW,255,1.0,1.0,-999,0.00,,,-99.99,,2013-08-01 08:18:00,
2013-08-01 05:52:00,67.0,-99.9,-100.00,SSW,195,0.0,3.0,-999,0.00,,,-99.99,,2013-08-01 09:52:00,
2013-08-01 06:22:00,67.0,-99.9,-100.00,SSW,205,1.0,4.0,-999,0.00,,,-99.99,,2013-08-01 10:22:00,
2013-08-01 07:04:00,67.0,-99.9,-100.00,SSW,195,1.0,3.0,-999,0.00,,,-99.99,,2013-08-01 11:04:00,
2013-08-01 07:53:00,68.0,-99.9,-100.00,SW,220,2.0,3.0,-999,0.00,,,-99.99,,2013-08-01 11:53:00,
2013-08-01 08:12:00,68.0,-99.9,-100.00,SW,220,2.0,6.0,-999,0.00,,,-99.99,,2013-08-01 12:12:00,
2013-08-01 08:24:00,69.0,-99.9,-100.00,SW,235,2.0,6.0,-999,0.00,,,-99.99,,2013-08-01 12:24:00,
2013-08-01 08:42:00,69.0,-99.9,-100.00,WSW,250,2.0,4.0,-999,0.00,,,-99.99,,2013-08-01 12:42:00,
2013-08-01 09:13:00,71.0,67.0,-100.00,West,270,2.0,7.0,84,0.00,,,-99.99,,2013-08-01 13:13:00,
2013-08-01 09:21:00,72.0,67.0,-100.00,West,275,2.0,7.0,82,0.00,,,-99.99,,2013-08-01 13:21:00,
2013-08-01 09:33:00,71.0,67.0,-100.00,WSW,255,2.0,7.0,85,0.00,,,-99.99,,2013-08-01 13:33:00,
2013-08-01 09:50:00,72.0,66.0,-100.00,SW,225,1.0,6.0,81,0.00,,,-99.99,,2013-08-01 13:50:00,
2013-08-01 10:17:00,73.0,65.0,-100.00,SE,135,1.0,6.0,76,0.00,,,-99.99,,2013-08-01 14:17:00,
2013-08-01 11:15:00,73.0,65.0,-100.00,SW,225,2.0,6.0,75,0.00,,,-99.99,,2013-08-01 15:15:00,
2013-08-01 11:50:00,77.0,65.0,-100.00,WNW,295,4.0,8.0,67,0.00,,,-99.99,,2013-08-01 15:50:00,
2013-08-01 11:59:00,77.0,65.0,-100.00,WSW,240,4.0,7.0,67,0.00,,,-99.99,,2013-08-01 15:59:00,
2013-08-01 12:42:00,80.0,64.0,-100.00,WNW,295,5.0,11.0,57,0.00,,,-99.99,,2013-08-01 16:42:00,
2013-08-01 13:16:00,80.0,64.0,-100.00,West,280,3.0,7.0,58,0.00,,,-99.99,,2013-08-01 17:16:00,
2013-08-01 13:21:00,79.0,65.0,-100.00,NE,45,2.0,7.0,60,0.00,,,-99.99,,2013-08-01 17:21:00,
2013-08-01 14:01:00,80.0,63.0,-100.00,WSW,250,6.0,10.0,54,0.00,,,-99.99,,2013-08-01 18:01:00,
2013-08-01 14:18:00,81.0,63.0,-100.00,SW,220,2.0,12.0,55,0.00,,,-99.99,,2013-08-01 18:18:00,
2013-08-01 14:43:00,81.0,63.0,-100.00,WNW,290,4.0,12.0,54,0.00,,,-99.99,,2013-08-01 18:43:00,
2013-08-01 15:02:00,82.0,61.0,-100.00,ENE,65,2.0,11.0,49,0.00,,,-99.99,,2013-08-01 19:02:00,
2013-08-01 15:33:00,82.0,62.0,-100.00,WSW,255,7.0,14.0,51,0.00,,,-99.99,,2013-08-01 19:33:00,
2013-08-01 16:00:00,82.0,61.0,-100.00,WNW,285,4.0,9.0,49,0.00,,,-99.99,,2013-08-01 20:00:00,
2013-08-01 16:40:00,80.0,59.0,-100.00,West,265,9.0,15.0,48,0.00,,,-99.99,,2013-08-01 20:40:00,
2013-08-01 17:03:00,81.0,60.0,-100.00,SW,235,9.0,15.0,49,0.00,,,-99.99,,2013-08-01 21:03:00,
2013-08-01 17:14:00,81.0,60.0,-100.00,SW,235,9.0,15.0,49,0.00,,,-99.99,,2013-08-01 21:14:00,
2013-08-01 17:34:00,82.0,60.0,-100.00,West,265,4.0,11.0,48,0.00,,,-99.99,,2013-08-01 21:34:00,
2013-08-01 18:35:00,81.0,59.0,-100.00,WSW,255,5.0,10.0,48,0.00,,,-99.99,,2013-08-01 22:35:00,
2013-08-01 18:46:00,80.0,59.0,-100.00,West,270,6.0,9.0,48,0.00,,,-99.99,,2013-08-01 22:46:00,
2013-08-01 18:55:00,80.0,59.0,-100.00,WSW,250,6.0,14.0,48,0.00,,,-99.99,,2013-08-01 22:55:00,
2013-08-01 19:17:00,80.0,58.0,-100.00,West,265,4.0,11.0,47,0.00,,,-99.99,,2013-08-01 23:17:00,
2013-08-01 19:33:00,78.0,60.0,-100.00,WSW,240,6.0,10.0,52,0.00,,,-99.99,,2013-08-01 23:33:00,
2013-08-01 19:48:00,78.0,61.0,-100.00,West,265,4.0,9.0,54,0.00,,,-99.99,,2013-08-01 23:48:00,
2013-08-01 19:57:00,78.0,61.0,-100.00,West,265,4.0,9.0,54,0.00,,,-99.99,,2013-08-01 23:57:00,
2013-08-01 20:19:00,77.0,60.0,-100.00,SW,230,3.0,9.0,54,0.00,,,-99.99,,2013-08-02 00:19:00,
2013-08-01 20:28:00,74.0,62.0,-100.00,SW,215,2.0,6.0,65,0.00,,,-99.99,,2013-08-02 00:28:00,
2013-08-01 20:39:00,72.0,63.0,-100.00,SSW,200,1.0,3.0,72,0.00,,,-99.99,,2013-08-02 00:39:00,
2013-08-01 20:49:00,71.0,63.0,-100.00,SSW,205,1.0,3.0,76,0.00,,,-99.99,,2013-08-02 00:49:00,
2013-08-01 21:02:00,69.0,63.0,-100.00,SW,220,1.0,4.0,80,0.00,,,-99.99,,2013-08-02 01:02:00,
2013-08-01 21:39:00,67.0,64.0,-100.00,WSW,255,1.0,3.0,87,0.00,,,-99.99,,2013-08-02 01:39:00,
2013-08-01 21:56:00,67.0,63.0,-100.00,SSE,155,1.0,2.0,89,0.00,,,-99.99,,2013-08-02 01:56:00,
2013-08-01 22:17:00,66.0,63.0,-100.00,SSW,205,1.0,4.0,91,0.00,,,-99.99,,2013-08-02 02:17:00,
2013-08-01 22:35:00,65.0,64.0,-100.00,SSW,195,0.0,3.0,94,0.00,,,-99.99,,2013-08-02 02:35:00,
2013-08-01 22:45:00,65.0,64.0,-100.00,SSW,205,1.0,2.0,96,0.00,,,-99.99,,2013-08-02 02:45:00,
2013-08-01 23:42:00,64.0,-99.9,-100.00,SSE,165,0.0,1.0,-999,0.00,,,-99.99,,2013-08-02 03:42:00,